Weather History for KMPV - October, 2013

Change the Weather History Date:

Friday, October 4, 2013

  Actual Average Record
Temperature  
Mean Temperature 51 °F 50 °F  
Max Temperature 62 °F 61 °F 79 °F (2005)
Min Temperature 40 °F 39 °F 23 °F (1948)
Degree Days  
Heating Degree Days 14 15  
Month to date heating degree days 38 58  
Since 1 July heating degree days 418 413  
Cooling Degree Days 0 0  
Month to date cooling degree days 0 0  
Year to date cooling degree days 323 263  
Moisture  
Dew Point 45 °F    
Average Humidity 83    
Maximum Humidity 100    
Minimum Humidity 65    
Precipitation  
Precipitation 0.02 in 0.12 in 1.70 in (1987)
Month to date precipitation 0.02 0.47  
Year to date precipitation 29.63 28.39  
Sea Level Pressure  
Sea Level Pressure 30.14 in    
Wind  
Wind Speed 1 mph (North)    
Max Wind Speed 5 mph    
Max Gust Speed 6 mph    
Visibility 5 miles    
Events Fog , Rain    
T = Trace of Precipitation, MM = Missing Value Source: NWS Daily Summary

Daily Weather History Graph

Daily Weather History Graph

Search for Another Location

Airport or City:

Trip Planner

Search our weather history database for the weather conditions in past years. The results will help you decide how hot, cold, wet, or windy it might be!

Date:

Astronomy

Oct. 04, 2013 Rise Set
Actual Time 6:51 AM EDT 6:25 PM EDT
Civil Twilight 6:22 AM EDT 6:54 PM EDT
Nautical Twilight 5:49 AM EDT 7:27 PM EDT
Astronomical Twilight 5:15 AM EDT 8:01 PM EDT
Moon 6:24 AM EDT (10/4) 6:04 PM EDT (10/4)
Length of Visible Light 12h 31m
Length of Day
11h 33m
Waning Crescent, 0% of the Moon is Illuminated
Oct 4
Waning Crescent
Oct 4
New
Oct 11
First Quarter
Oct 18
Full
Oct 26
Last Quarter

Hourly Weather History & Observations

Time (EDT) Temp. Dew Point Humidity Pressure Visibility Wind Dir Wind Speed Gust Speed Precip Events Conditions
12:51 AM 44.1 °F 42.1 °F 93% 30.13 in 10.0 mi Calm Calm - N/A   Clear
1:51 AM 44.1 °F 43.0 °F 96% 30.14 in 9.0 mi Calm Calm - N/A   Clear
2:10 AM 44.6 °F 42.8 °F 93% 30.12 in 2.5 mi Calm Calm - N/A   Clear
2:51 AM 44.1 °F 42.1 °F 93% 30.13 in 9.0 mi Calm Calm - N/A   Clear
3:03 AM 42.8 °F 42.8 °F 100% 30.12 in 10.0 mi Calm Calm - N/A   Scattered Clouds
3:12 AM 42.8 °F 39.2 °F 87% 30.12 in 2.0 mi Calm Calm - N/A   Mostly Cloudy
3:14 AM 41.0 °F 39.2 °F 93% 30.12 in 1.2 mi Calm Calm - N/A   Mostly Cloudy
3:16 AM 41.0 °F 39.2 °F 93% 30.12 in 0.8 mi Calm Calm - N/A   Mostly Cloudy
3:51 AM 43.0 °F 42.1 °F 97% 30.12 in 0.5 mi Calm Calm - N/A Fog Fog
3:56 AM 42.8 °F 42.8 °F 100% 30.11 in 1.2 mi Calm Calm - N/A   Overcast
4:10 AM 41.0 °F 39.2 °F 93% 30.11 in 1.0 mi Calm Calm - N/A   Mist
4:23 AM 42.8 °F 41.0 °F 93% 30.11 in 0.2 mi Calm Calm - N/A Fog Fog
4:51 AM 42.1 °F 42.1 °F 100% 30.13 in 1.0 mi Calm Calm - 0.01 in   Mist
5:02 AM 41.0 °F 39.2 °F 93% 30.12 in 0.5 mi Calm Calm - N/A Fog Fog
5:51 AM 42.1 °F 41.0 °F 96% 30.14 in 0.2 mi Calm Calm - N/A Fog Fog
6:24 AM 39.2 °F 39.2 °F 100% 30.13 in 1.2 mi Calm Calm - N/A   Mostly Cloudy
6:28 AM 39.2 °F 39.2 °F 100% 30.13 in 0.8 mi Calm Calm - N/A   Mist
6:51 AM 41.0 °F 41.0 °F 100% 30.15 in 0.2 mi Calm Calm - N/A Fog Fog
6:59 AM 42.8 °F 41.0 °F 93% 30.13 in 1.2 mi Calm Calm - N/A   Overcast
7:04 AM 42.8 °F 41.0 °F 93% 30.14 in 3.0 mi Calm Calm - N/A   Overcast
7:07 AM 41.0 °F 41.0 °F 100% 30.14 in 1.2 mi Calm Calm - N/A   Overcast
7:14 AM 41.0 °F 41.0 °F 100% 30.14 in 0.2 mi Calm Calm - N/A Fog Fog
7:51 AM 41.0 °F 41.0 °F 100% 30.17 in 0.5 mi Calm Calm - N/A Fog Fog
7:57 AM 42.8 °F 42.8 °F 100% 30.15 in 1.2 mi Calm Calm - N/A   Overcast
7:59 AM 42.8 °F 42.8 °F 100% 30.14 in 2.5 mi Calm Calm - N/A   Overcast
8:06 AM 42.8 °F 42.8 °F 100% 30.15 in 3.0 mi Calm Calm - N/A   Overcast
8:47 AM 44.6 °F 44.6 °F 100% 30.15 in 1.8 mi Calm Calm - N/A   Mostly Cloudy
8:51 AM 45.0 °F 45.0 °F 100% 30.18 in 1.2 mi Calm Calm - N/A   Mostly Cloudy
9:08 AM 44.6 °F 44.6 °F 100% 30.16 in 2.0 mi Calm Calm - N/A   Mostly Cloudy
9:15 AM 46.4 °F 46.4 °F 100% 30.16 in 7.0 mi Calm Calm - N/A   Mostly Cloudy
9:22 AM 46.4 °F 46.4 °F 100% 30.17 in 9.0 mi Calm Calm - N/A   Scattered Clouds
9:51 AM 48.0 °F 48.0 °F 100% 30.18 in 9.0 mi Calm Calm - N/A   Partly Cloudy
10:51 AM 54.0 °F 48.9 °F 83% 30.16 in 10.0 mi Calm Calm - N/A   Clear
11:51 AM 54.0 °F 48.9 °F 83% 30.16 in 10.0 mi Calm Calm - 0.00 in Rain Light Rain
12:51 PM 57.0 °F 50.0 °F 77% 30.15 in 10.0 mi Calm Calm - 0.01 in Rain Light Rain
1:51 PM 61.0 °F 50.0 °F 67% 30.12 in 10.0 mi NNE 4.6 mph - 0.00 in   Scattered Clouds
2:51 PM 62.1 °F 50.0 °F 65% 30.12 in 10.0 mi NNE 3.5 mph - N/A   Overcast
3:51 PM 62.1 °F 50.0 °F 65% 30.11 in 10.0 mi Calm Calm - N/A   Overcast
4:51 PM 62.1 °F 50.0 °F 65% 30.11 in 10.0 mi Calm Calm - 0.00 in   Overcast
5:51 PM 60.1 °F 53.1 °F 78% 30.12 in 10.0 mi Calm Calm - 0.00 in   Mostly Cloudy
6:51 PM 55.9 °F 52.0 °F 87% 30.13 in 10.0 mi Calm Calm - 0.00 in   Overcast
7:51 PM 55.0 °F 52.0 °F 89% 30.14 in 10.0 mi Calm Calm - 0.00 in   Overcast
8:51 PM 55.9 °F 50.0 °F 80% 30.14 in 10.0 mi Calm Calm - N/A   Overcast
9:51 PM 55.9 °F 50.0 °F 80% 30.15 in 10.0 mi Calm Calm - N/A   Overcast
10:51 PM 55.0 °F 48.0 °F 77% 30.16 in 10.0 mi NNW 3.5 mph - N/A   Overcast
11:51 PM 54.0 °F 48.9 °F 83% 30.14 in 10.0 mi Calm Calm - N/A   Overcast